When you browse on this site, cookies collect data to enhance your experience and personalize the content and advertising you see.
Visit our Privacy Policy to learn more. By continuing to use the site, you agree to this use of cookies and data.
  • In Austria
  • List of Countries
  • For 7 days
  • Water Temperature
  • Weather Map
  • News
  • Weather Widgets
  • user-avatar
    Login

    Hourly Weather Cookeville

    Today, 7 June, Sunday

    Time Temperature Precipitation Wind Pressure Humidity
    00:00 +22°C° 0 mm 1 mps 731 mmHg 91%
    01:00 +22°C° 0 mm 1 mps 731 mmHg 92%
    02:00 +22°C° 0 mm 1 mps 730 mmHg 92%
    03:00 +21°C° 0 mm 1 mps 730 mmHg 92%
    04:00 +22°C° 0 mm 1 mps 730 mmHg 91%
    05:00 +23°C° 0 mm 1 mps 731 mmHg 89%
    06:00 +24°C° 0 mm 1 mps 731 mmHg 88%
    07:00 +26°C° 0 mm 1 mps 731 mmHg 80%
    08:00 +28°C° 0 mm 1 mps 732 mmHg 71%
    09:00 +30°C° 0 mm 1 mps 732 mmHg 63%
    10:00 +31°C° 0 mm 2 mps 732 mmHg 59%
    11:00 +32°C° 0 mm 2 mps 732 mmHg 55%
    12:00 +34°C° 0 mm 2 mps 731 mmHg 51%
    13:00 +34°C° 0 mm 3 mps 731 mmHg 52%
    14:00 +34°C° 0 mm 3 mps 730 mmHg 54%
    15:00 +33°C° 0 mm 3 mps 729 mmHg 55%
    16:00 +30°C° 0 mm 3 mps 729 mmHg 60%
    17:00 +28°C° 0 mm 3 mps 729 mmHg 66%
    18:00 +26°C° 0 mm 4 mps 729 mmHg 71%
    19:00 +25°C° 0 mm 3 mps 729 mmHg 71%
    20:00 +24°C° 0 mm 3 mps 730 mmHg 71%
    21:00 +22°C° 0 mm 3 mps 730 mmHg 71%
    22:00 +21°C° 0 mm 2 mps 730 mmHg 69%
    23:00 +20°C° 0 mm 2 mps 730 mmHg 68%

    Tomorrow, 8 June, Monday

    Time Temperature Precipitation Wind Pressure Humidity
    00:00 +20°C° 0 mm 2 mps 730 mmHg 66%
    01:00 +20°C° 0 mm 2 mps 730 mmHg 66%
    02:00 +19°C° 0 mm 2 mps 729 mmHg 67%
    03:00 +19°C° 0 mm 2 mps 729 mmHg 67%
    04:00 +20°C° 0 mm 2 mps 729 mmHg 72%
    05:00 +20°C° 0 mm 2 mps 730 mmHg 76%
    06:00 +21°C° 0 mm 2 mps 730 mmHg 80%
    07:00 +24°C° 0 mm 2 mps 730 mmHg 76%
    08:00 +26°C° 0 mm 2 mps 730 mmHg 72%
    09:00 +29°C° 0 mm 3 mps 730 mmHg 68%
    10:00 +30°C° 0 mm 3 mps 730 mmHg 65%
    11:00 +31°C° 0 mm 3 mps 730 mmHg 63%
    12:00 +33°C° 0 mm 3 mps 730 mmHg 61%
    13:00 +33°C° 0.1 mm 3 mps 730 mmHg 64%
    14:00 +31°C° 0.1 mm 3 mps 729 mmHg 67%
    15:00 +31°C° 0.1 mm 2 mps 729 mmHg 70%
    16:00 +30°C° 0.1 mm 2 mps 729 mmHg 73%
    17:00 +29°C° 0.1 mm 2 mps 729 mmHg 77%
    18:00 +28°C° 0.1 mm 2 mps 728 mmHg 81%
    19:00 +27°C° 0 mm 2 mps 729 mmHg 81%
    20:00 +27°C° 0 mm 2 mps 729 mmHg 81%
    21:00 +26°C° 0 mm 2 mps 729 mmHg 81%
    22:00 +26°C° 0 mm 3 mps 729 mmHg 82%
    23:00 +26°C° 0 mm 3 mps 729 mmHg 83%

    Day after tomorrow, 9 June, Tuesday

    Time Temperature Precipitation Wind Pressure Humidity
    00:00 +25°C° 0 mm 3 mps 729 mmHg 83%
    01:00 +25°C° 0 mm 4 mps 728 mmHg 82%
    02:00 +25°C° 0 mm 4 mps 728 mmHg 82%
    03:00 +25°C° 0 mm 4 mps 728 mmHg 81%
    04:00 +25°C° 0 mm 4 mps 728 mmHg 82%
    05:00 +25°C° 0 mm 4 mps 728 mmHg 82%
    06:00 +25°C° 0 mm 5 mps 728 mmHg 82%
    07:00 +26°C° 0 mm 5 mps 728 mmHg 79%
    08:00 +27°C° 0 mm 6 mps 728 mmHg 76%
    09:00 +28°C° 0 mm 6 mps 728 mmHg 73%
    10:00 +28°C° 0 mm 6 mps 728 mmHg 72%
    11:00 +29°C° 0 mm 6 mps 728 mmHg 72%
    12:00 +29°C° 0 mm 6 mps 728 mmHg 71%
    13:00 +30°C° 0 mm 6 mps 728 mmHg 70%
    14:00 +30°C° 0 mm 6 mps 727 mmHg 70%
    15:00 +32°C° 0 mm 6 mps 727 mmHg 69%
    16:00 +30°C° 0 mm 5 mps 727 mmHg 73%
    17:00 +29°C° 0 mm 5 mps 727 mmHg 76%
    18:00 +29°C° 0 mm 4 mps 727 mmHg 80%
    19:00 +28°C° 0 mm 4 mps 727 mmHg 79%
    20:00 +27°C° 0 mm 4 mps 728 mmHg 78%
    21:00 +27°C° 0 mm 5 mps 728 mmHg 78%
    22:00 +26°C° 0.8 mm 4 mps 728 mmHg 82%
    23:00 +25°C° 0.8 mm 4 mps 728 mmHg 87%

    10 June, Wednesday

    Time Temperature Precipitation Wind Pressure Humidity
    00:00 +25°C° 0.8 mm 4 mps 728 mmHg 92%
    01:00 +23°C° 0.7 mm 4 mps 728 mmHg 93%
    02:00 +23°C° 0.7 mm 4 mps 728 mmHg 95%
    03:00 +24°C° 0.7 mm 3 mps 728 mmHg 96%
    04:00 +22°C° 0.3 mm 3 mps 729 mmHg 95%
    05:00 +21°C° 0.3 mm 4 mps 729 mmHg 94%
    06:00 +20°C° 0.3 mm 4 mps 730 mmHg 94%
    07:00 +21°C° 0 mm 4 mps 731 mmHg 84%
    08:00 +21°C° 0 mm 3 mps 731 mmHg 75%
    09:00 +22°C° 0 mm 3 mps 732 mmHg 66%
    10:00 +24°C° 0 mm 3 mps 732 mmHg 62%
    11:00 +25°C° 0 mm 3 mps 733 mmHg 58%
    12:00 +26°C° 0 mm 3 mps 733 mmHg 54%
    13:00 +26°C° 0 mm 3 mps 733 mmHg 55%
    14:00 +26°C° 0 mm 3 mps 733 mmHg 56%
    15:00 +26°C° 0 mm 4 mps 733 mmHg 57%
    16:00 +24°C° 0 mm 3 mps 733 mmHg 63%
    17:00 +22°C° 0 mm 3 mps 734 mmHg 70%
    18:00 +21°C° 0 mm 2 mps 734 mmHg 77%
    19:00 +19°C° 0 mm 2 mps 734 mmHg 80%
    20:00 +19°C° 0 mm 1 mps 735 mmHg 84%
    21:00 +16°C° 0 mm 1 mps 735 mmHg 87%
    22:00 +16°C° 0 mm 1 mps 735 mmHg 88%
    23:00 +15°C° 0 mm 1 mps 735 mmHg 90%

    11 June, Thursday

    Time Temperature Precipitation Wind Pressure Humidity
    00:00 +15°C° 0 mm 1 mps 735 mmHg 91%
    01:00 +15°C° 0 mm 1 mps 735 mmHg 91%
    02:00 +14°C° 0 mm 1 mps 735 mmHg 92%
    03:00 +14°C° 0 mm 1 mps 735 mmHg 92%
    04:00 +15°C° 0 mm 1 mps 735 mmHg 90%
    05:00 +16°C° 0 mm 1 mps 736 mmHg 87%
    06:00 +18°C° 0 mm 1 mps 736 mmHg 84%
    07:00 +20°C° 0 mm 1 mps 736 mmHg 75%
    08:00 +21°C° 0 mm 2 mps 737 mmHg 66%
    09:00 +25°C° 0 mm 2 mps 737 mmHg 56%
    10:00 +26°C° 0 mm 2 mps 737 mmHg 53%
    11:00 +27°C° 0 mm 3 mps 737 mmHg 50%
    12:00 +28°C° 0 mm 3 mps 737 mmHg 47%
    13:00 +28°C° 0 mm 3 mps 737 mmHg 48%
    14:00 +28°C° 0 mm 3 mps 736 mmHg 49%
    15:00 +28°C° 0 mm 3 mps 736 mmHg 50%
    16:00 +27°C° 0 mm 3 mps 736 mmHg 58%
    17:00 +25°C° 0 mm 2 mps 736 mmHg 67%
    18:00 +24°C° 0 mm 2 mps 736 mmHg 75%
    19:00 +22°C° 0 mm 1 mps 736 mmHg 79%
    20:00 +21°C° 0 mm 1 mps 736 mmHg 82%
    21:00 +19°C° 0 mm 1 mps 736 mmHg 86%
    22:00 +19°C° 0 mm 1 mps 736 mmHg 85%
    23:00 +18°C° 0 mm 1 mps 735 mmHg 85%

    12 June, Friday

    Time Temperature Precipitation Wind Pressure Humidity
    00:00 +18°C° 0 mm 1 mps 735 mmHg 85%
    01:00 +16°C° 0 mm 1 mps 735 mmHg 84%
    02:00 +16°C° 0 mm 1 mps 735 mmHg 83%
    03:00 +15°C° 0 mm 0 mps 735 mmHg 82%
    04:00 +16°C° 0 mm 0 mps 736 mmHg 81%
    05:00 +17°C° 0 mm 0 mps 736 mmHg 80%
    06:00 +18°C° 0 mm 0 mps 736 mmHg 79%
    07:00 +22°C° 0 mm 1 mps 736 mmHg 71%
    08:00 +25°C° 0 mm 1 mps 736 mmHg 63%
    09:00 +27°C° 0 mm 1 mps 736 mmHg 55%
    10:00 +29°C° 0 mm 1 mps 736 mmHg 52%
    11:00 +30°C° 0 mm 1 mps 736 mmHg 49%
    12:00 +31°C° 0 mm 1 mps 736 mmHg 45%
    13:00 +30°C° 0 mm 1 mps 735 mmHg 47%
    14:00 +30°C° 0 mm 2 mps 734 mmHg 49%
    15:00 +30°C° 0 mm 2 mps 734 mmHg 50%
    16:00 +29°C° 0.2 mm 2 mps 734 mmHg 61%
    17:00 +27°C° 0.2 mm 2 mps 733 mmHg 71%
    18:00 +25°C° 0.2 mm 2 mps 733 mmHg 81%
    19:00 +23°C° 0.1 mm 1 mps 733 mmHg 84%
    20:00 +22°C° 0.1 mm 1 mps 733 mmHg 87%
    21:00 +18°C° 0.1 mm 0 mps 733 mmHg 91%
    22:00 +18°C° 0 mm 0 mps 733 mmHg 92%
    23:00 +18°C° 0 mm 0 mps 732 mmHg 92%
    Show more